Satellite: AO-27
Catalog number: 22825
Epoch time:      06011.48213063
Element set:     308
Inclination:      098.2680 deg
RA of node:       001.1373 deg
Eccentricity:    0.0008572
Arg of perigee:   012.6988 deg
Mean anomaly:     347.4415 deg
Mean motion:   14.29159159 rev/day
Decay rate:        3.1e-07 rev/day^2
Epoch rev:           64097
Checksum:              293

Satellite: IO-26
Catalog number: 22826
Epoch time:      06011.89857144
Element set:     992
Inclination:      098.2624 deg
RA of node:       002.7808 deg
Eccentricity:    0.0009309
Arg of perigee:   008.7013 deg
Mean anomaly:     351.4329 deg
Mean motion:   14.29401883 rev/day
Decay rate:        2.3e-07 rev/day^2
Epoch rev:           64110
Checksum:              293

Satellite: PO-28
Catalog number: 22829
Epoch time:      06012.87732039
Element set:     276
Inclination:      098.2526 deg
RA of node:       004.9112 deg
Eccentricity:    0.0009621
Arg of perigee:   341.4782 deg
Mean anomaly:     018.6057 deg
Mean motion:   14.30088316 rev/day
Decay rate:       -3.0e-08 rev/day^2
Epoch rev:           64144
Checksum:              288

Satellite: TO-31
Catalog number: 25396
Epoch time:      06011.65056893
Element set:    0435
Inclination:      098.5032 deg
RA of node:       077.3642 deg
Eccentricity:    0.0002081
Arg of perigee:   311.5306 deg
Mean anomaly:     048.5711 deg
Mean motion:   14.23693492 rev/day
Decay rate:       -7.4e-07 rev/day^2
Epoch rev:           39007
Checksum:              288

Satellite: GO-32
Catalog number: 25397
Epoch time:      06012.73612251
Element set:     923
Inclination:      098.4936 deg
RA of node:       075.5016 deg
Eccentricity:    0.0001010
Arg of perigee:   352.6369 deg
Mean anomaly:     007.4797 deg
Mean motion:   14.23095793 rev/day
Decay rate:      -1.61e-06 rev/day^2
Epoch rev:           39013
Checksum:              292

Satellite: UO-36
Catalog number: 25693
Epoch time:      06012.40727078
Element set:     928
Inclination:      064.5586 deg
RA of node:       001.1653 deg
Eccentricity:    0.0002065
Arg of perigee:   258.9607 deg
Mean anomaly:     101.1265 deg
Mean motion:   14.78570377 rev/day
Decay rate:        2.5e-07 rev/day^2
Epoch rev:           36275
Checksum:              303

Satellite: MO-46
Catalog number: 26548
Epoch time:      06012.86916624
Element set:     385
Inclination:      064.5577 deg
RA of node:       352.1112 deg
Eccentricity:    0.0052375
Arg of perigee:   268.8547 deg
Mean anomaly:     090.6571 deg
Mean motion:   14.82897562 rev/day
Decay rate:       1.73e-06 rev/day^2
Epoch rev:           28637
Checksum:              340

Satellite: NO-44
Catalog number: 26931
Epoch time:      06010.57030104
Element set:    0209
Inclination:      067.0533 deg
RA of node:       053.6584 deg
Eccentricity:    0.0006449
Arg of perigee:   274.6968 deg
Mean anomaly:     085.3400 deg
Mean motion:   14.29420379 rev/day
Decay rate:       -8.6e-07 rev/day^2
Epoch rev:           22340
Checksum:              285

Satellite: SO-50
Catalog number: 27607
Epoch time:      06012.76472879
Element set:     917
Inclination:      064.5576 deg
RA of node:       224.8571 deg
Eccentricity:    0.0061958
Arg of perigee:   193.2430 deg
Mean anomaly:     166.7032 deg
Mean motion:   14.71084240 rev/day
Decay rate:        5.3e-07 rev/day^2
Epoch rev:           16456
Checksum:              313

Satellite: AO-51
Catalog number: 28375
Epoch time:      06012.20772620
Element set:     434
Inclination:      098.1896 deg
RA of node:       071.1751 deg
Eccentricity:    0.0084423
Arg of perigee:   320.1784 deg
Mean anomaly:     039.3224 deg
Mean motion:   14.40500129 rev/day
Decay rate:        4.3e-07 rev/day^2
Epoch rev:            8070
Checksum:              268

Satellite: XO-53
Catalog number: 28894
Epoch time:      06012.75066993
Element set:     252
Inclination:      098.1813 deg
RA of node:       273.3828 deg
Eccentricity:    0.0016839
Arg of perigee:   300.3239 deg
Mean anomaly:     059.6287 deg
Mean motion:   14.59429312 rev/day
Decay rate:        8.0e-07 rev/day^2
Epoch rev:            1130
Checksum:              313

/EX
SB KEPS @ AMSAT  $ORB06012.W
Orbital Elements  06012.WEATHER

HR AMSAT ORBITAL ELEMENTS FOR WEATHER SATELLITES
FROM WA5QGD FORT WORTH,TX January 12, 2006
Send SUBSCRIBE KEPS/UNSUBSCRIBE KEPS to majordomo@amsat.org only
BID: ORB06012.W
TO ALL RADIO AMATEURS BT

Satellite: NOAA-10
Catalog number: 16969
Epoch time:      06012.44660368
Element set:      52
Inclination:      098.7649 deg
RA of node:       023.7189 deg
Eccentricity:    0.0011708
Arg of perigee:   242.5446 deg
Mean anomaly:     117.4550 deg
Mean motion:   14.27282503 rev/day
Decay rate:       -4.0e-08 rev/day^2
Epoch rev:             494
Checksum:              293

Satellite: NOAA-11
Catalog number: 19531
Epoch time:      06012.49109541
Element set:     945
Inclination:      098.8369 deg
RA of node:       102.5687 deg
Eccentricity:    0.0012377
Arg of perigee:   074.3194 deg
Mean anomaly:     285.9333 deg
Mean motion:   14.14787469 rev/day
Decay rate:       1.17e-06 rev/day^2
Epoch rev:           89252
Checksum:              330

Satellite: NOAA-12
Catalog number: 21263
Epoch time:      06010.52609264
Element set:     434
Inclination:      098.7202 deg
RA of node:       004.5664 deg
Eccentricity:    0.0012684
Arg of perigee:   182.8429 deg
Mean anomaly:     177.2703 deg
Mean motion:   14.25481113 rev/day
Decay rate:       -4.4e-07 rev/day^2
Epoch rev:           76178
Checksum:              283

